Location: Elstree
(51.6403°N, 0.2969°W)
Time: 13:56:39
(UTC+00:00)

CSL-04 Rocket - Pass Details

Date: 03 March 2021
Orbit: 805 x 861 km, 98.9° (Epoch: 13 April)

Event Time Altitude Azimuth Distance (km) Brightness Sun altitude
Rises 18:23:21 0° 146° (SE) 3,427 6.5 -6.7°
Reaches altitude 10° 18:25:46 10° 142° (SE) 2,491 5.8 -7.1°
Maximum altitude 18:31:07 53° 67° (ENE) 1,043 3.9 -7.9°
Drops below altitude 10° 18:36:28 10° 352° (N) 2,483 6.3 -8.7°
Sets 18:38:52 0° 348° (NNW) 3,415 7.0 -9.1°
